Back to catalog

FENGYUN 1C DEB

LostPO
NORAD 36663·DEBRIS·🇨🇳 China

Launched May 10, 1999 from Taiyuan Satellite Launch Center

Loading…

Next Passes (next 24 hours)

TLE

StaleSource: Space-Track

Epoch: Jan 5, 2017, 15:42 UTC

1 36663U 99025DYH 17005.65441086  .00000286  00000-0  11947-3 0  9997
2 36663  98.1831 309.1640 0229561 149.6750 211.8420 14.12903356379906

Track FENGYUN 1C DEB in real time with AllMySat

Download on the App Store